Regional Weather Roundup
Issued by NWS Kansas City/Pleasant Hill, MO

Home | Current Version | Previous Version | Text Only | Print | Product List | Glossary On
Versions: 1 2 3 4 5 6 7 8 9 10 11 12 13 14 15 16 17 18 19 20 21 22 23 24 25 26 27
000
ASUS43 KEAX 231110
RWREAX

WEATHER ROUNDUP FOR EASTERN KANSAS AND NORTHWEST MISSOURI
NATIONAL WEATHER SERVICE KANSAS CITY/PLEASANT HILL MO
600 AM CDT WED AUG 23 2017

KSZ040-057-103>105-MOZ028-029-037-043-231200-
...KANSAS CITY METROPOLITAN AREA...

CITY           SKY/WX    TMP DP  RH WIND       PRES   REMARKS
K.C. INTL      CLEAR     58  53  84 N3        30.16R
K.C. DOWNTOWN  CLEAR     60  57  89 CALM      30.15S
LEES SUMMIT    CLEAR     57  55  93 MISG      30.16S
OLATHE - IXD   CLEAR     56  53  90 CALM      30.17S
OLATHE - OJC   CLEAR     59  54  83 NE5       30.16S
LAWRENCE       CLEAR     55  54  96 NW3       30.16S

$$

MOZ001>008-011>017-020>025-030>033-038>040-044>046-053-054-231200-
...NORTHERN AND CENTRAL MISSOURI...

CITY           SKY/WX    TMP DP  RH WIND       PRES   REMARKS
ST. JOSEPH     FOG       51  51 100 CALM      30.16S VSB 1/4
MOSBY          SUNNY     54  54 100 CALM      30.15S
WARRENSBURG    CLEAR     54  52  94 CALM      30.15S
WHITEMAN AFB   PTCLDY    56  56 100 NW2       30.13S
CLINTON        CLEAR     55  54  94 CALM      30.15R
SEDALIA        CLEAR     57  56  96 NW3       30.15R
WARSAW         NOT AVBL
CHILLICOTHE      N/A     53  52  96 CALM      30.15F
KIRKSVILLE     CLEAR     53  32  44 NW5       30.14S

$$

MOZ041-047>049-056>058-063>065-088>090-097-231200-
...EASTERN AND SOUTHERN MISSOURI...

CITY           SKY/WX    TMP DP  RH WIND       PRES   REMARKS
ST. LOUIS INTL PTCLDY    60  56  86 W5        30.10R
SPIRIT OF STL  CLEAR     57  57 100 CALM      30.09R
COLUMBIA       CLEAR     57  54  89 N6        30.13S
JEFFERSON CITY CLEAR     57  57 100 CALM      30.12S
ROLLA          CLEAR     57  55  93 N3        30.13S
OSAGE BEACH    CLEAR     57  55  93 CALM      30.13S
SPRINGFIELD    CLOUDY    62  58  86 NE8       30.12R
BRANSON          N/A     68  61  77 NE3       30.12R
JOPLIN         PTCLDY    63  61  93 NE6       30.12S
WEST PLAINS    CLOUDY    65  59  81 NE8       30.12R

$$

IAZ060-094-KSZ022-034>040-054-083-096-NEZ052-066-093-231200-
...KANSAS...SOUTHEAST NEBRASKA AND IOWA...

CITY           SKY/WX    TMP DP  RH WIND       PRES   REMARKS
TOPEKA         CLEAR     56  55  97 CALM      30.17R
MANHATTAN      CLEAR     53  52  96 CALM      30.17S
EMPORIA        CLEAR     55  54  96 CALM      30.17S
CHANUTE        CLEAR     60  54  80 NE7       30.14S
WICHITA        PTCLDY    61  54  77 NE6       30.16S
OMAHA          CLEAR     58  54  86 SE3       30.16S
LINCOLN        CLEAR     53  50  89 CALM      30.18S
FALLS CITY     CLEAR     52  51  97 SE3       30.15F
LAMONI         CLEAR     54  51  90 W3        30.15S
DES MOINES     PTCLDY    56  53  90 W3        30.12F

$$





USA.gov is the U.S. government's official web portal to all federal, state and local government web resources and services.